New Iberia, LA

9:16 PM CDT on August 17, 2017 (GMT -0500)
Acadiana Regional

Weather History for KARA - March, 2013

Change the Weather History Date:

Wednesday, March 20, 2013

  Actual Average Record
Temperature  
Mean Temperature 63 °F 63 °F  
Max Temperature 74 °F 74 °F 84 °F (2015)
Min Temperature 51 °F 52 °F 27 °F (1965)
Degree Days  
Heating Degree Days 2 4  
Month to date heating degree days 136 109  
Since 1 July heating degree days 1023 1325  
Cooling Degree Days 0 2  
Month to date cooling degree days 23 25  
Year to date cooling degree days 71 56  
Growing Degree Days 14 (Base 50)    
Moisture  
Dew Point 42 °F    
Average Humidity 49    
Maximum Humidity 78    
Minimum Humidity 20    
Precipitation  
Precipitation 0.08 in 0.10 in 1.82 in (1985)
Month to date precipitation 2.05 2.48  
Year to date precipitation 18.80 11.89  
Sea Level Pressure  
Sea Level Pressure 30.08 in    
Wind  
Wind Speed 11 mph (NNE)    
Max Wind Speed 29 mph    
Max Gust Speed 33 mph    
Visibility 10 miles    
Events Rain    
T = Trace of Precipitation, MM = Missing Value Source: NWS Daily Summary

Daily Weather History Graph

Daily Weather History Graph

Search for Another Location

Airport or City:

Trip Planner

Search our weather history database for the weather conditions in past years. The results will help you decide how hot, cold, wet, or windy it might be!

Date:

Astronomy

Mar. 20, 2013 Rise Set
Actual Time 7:11 AM CDT 7:19 PM CDT
Civil Twilight 6:47 AM CDT 7:43 PM CDT
Nautical Twilight 6:19 AM CDT 8:10 PM CDT
Astronomical Twilight 5:51 AM CDT 8:39 PM CDT
Moon 1:17 PM CDT (3/20) 2:27 AM CDT (3/20)
Length of Visible Light 12h 55m
Length of Day
12h 08m
First Quarter, 59% of the Moon is Illuminated
Mar 20
First Quarter
Mar 27
Full
Apr 2
Last Quarter
Apr 10
New
Apr 18
First Quarter

Hourly Weather History & Observations

Time (CDT) Temp. Dew Point Humidity Pressure Visibility Wind Dir Wind Speed Gust Speed Precip Events Conditions
12:53 AM 63.0 °F 55.0 °F 75% 30.00 in 10.0 mi North 6.9 mph - N/A   Partly Cloudy
1:53 AM 64.0 °F 48.9 °F 58% 30.00 in 10.0 mi NE 12.7 mph - N/A   Partly Cloudy
2:53 AM 64.9 °F 55.0 °F 70% 30.00 in 10.0 mi NNE 9.2 mph - N/A   Mostly Cloudy
3:53 AM 64.9 °F 51.1 °F 61% 30.01 in 10.0 mi NNE 12.7 mph - N/A   Partly Cloudy
4:53 AM 63.0 °F 42.1 °F 46% 30.01 in 10.0 mi NNE 16.1 mph 26.5 mph N/A   Scattered Clouds
5:53 AM 62.1 °F 41.0 °F 46% 30.09 in 10.0 mi North 12.7 mph - N/A   Partly Cloudy
6:53 AM 60.1 °F 41.0 °F 49% 30.14 in 10.0 mi North 13.8 mph - N/A   Overcast
7:53 AM 57.0 °F 44.1 °F 62% 30.14 in 10.0 mi NNE 10.4 mph - 0.00 in Rain Light Rain
8:53 AM 55.0 °F 46.9 °F 74% 30.18 in 4.0 mi WNW 3.5 mph - 0.04 in Rain Rain
9:53 AM 55.0 °F 48.9 °F 80% 30.11 in 10.0 mi ESE 13.8 mph - 0.04 in Rain Light Rain
10:53 AM 57.0 °F 50.0 °F 77% 30.19 in 10.0 mi NE 9.2 mph - 0.00 in   Clear
11:53 AM 60.1 °F 50.0 °F 69% 30.17 in 10.0 mi NNE 12.7 mph - N/A   Clear
12:53 PM 66.0 °F 48.0 °F 52% 30.16 in 10.0 mi NE 10.4 mph - N/A   Clear
1:53 PM 70.0 °F 45.0 °F 41% 30.12 in 10.0 mi North 13.8 mph 20.7 mph N/A   Clear
2:53 PM 72.0 °F 41.0 °F 33% 30.08 in 10.0 mi NNE 18.4 mph 21.9 mph N/A   Clear
3:53 PM 73.0 °F 34.0 °F 24% 30.06 in 10.0 mi NNE 19.6 mph - N/A   Clear
4:53 PM 73.0 °F 32.0 °F 22% 30.05 in 10.0 mi North 19.6 mph 25.3 mph N/A   Clear
5:53 PM 71.1 °F 28.9 °F 21% 30.06 in 10.0 mi NNE 19.6 mph 27.6 mph N/A   Clear
6:53 PM 66.9 °F 30.0 °F 25% 30.06 in 10.0 mi NNE 12.7 mph - N/A   Clear
7:53 PM 59.0 °F 32.0 °F 36% 30.06 in 10.0 mi North 9.2 mph - N/A   Clear
8:53 PM 57.0 °F 34.0 °F 42% 30.07 in 10.0 mi NNE 5.8 mph - N/A   Clear
9:53 PM 59.0 °F 32.0 °F 36% 30.08 in 10.0 mi NNE 8.1 mph - N/A   Clear
10:53 PM 57.0 °F 33.1 °F 40% 30.08 in 10.0 mi NE 5.8 mph - N/A   Clear
11:53 PM 54.0 °F 33.1 °F 45% 30.07 in 10.0 mi Calm Calm - N/A   Clear